Location: Jaite
(41.2884°N, 81.5737°W)
Time: 12:41:45
(UTC+00:00)

Cosmos 1725 Rocket - Pass Details

Date: 15 November 2025
Orbit: 961 x 989 km, 82.9° (Epoch: 11 December)

Event Time Altitude Azimuth Distance (km) Brightness Sun altitude
Rises 09:37:35 0° 352° (N) 3,710 7.0 -29.5°
Reaches altitude 10° 09:40:07 10° 352° (N) 2,757 6.3 -29.0°
Maximum altitude 09:46:28 88° 268° (W) 993 3.9 -27.8°
Drops below altitude 10° 09:52:44 10° 175° (S) 2,727 6.4 -26.7°
Sets 09:55:14 0° 176° (S) 3,667 7.1 -26.2°
